DLH867 LHBP-LIMJ

Flight info

Callsign DLH867
Flight time 1h 22m
Altitude 36000
Route GILEP DCT ZOLKU DCT SUBES DCT SUNIS DCT RADLY DCT RIFEN/N0448F350 DCT AKADO DCT NISIL DCT BEROK DCT MIVKI M730 KALMO
Aircraft A21N/M-SDE3FGHIRWY/LB1

Departure

Time 2026-05-04 20:06
Airport Budapest Liszt Ferenc International Airport (LHBP)

Arrival

Time 2026-05-04 21:28
Airport Genoa Cristoforo Colombo Airport (LIMJ)
Time Latitude Longitude Altitude Speed Heading
2026-05-04 19:32 47.43595 19.26353 475 ft 0 kts 221°
2026-05-04 19:52 47.43605 19.26366 475 ft 2 kts 222°
2026-05-04 19:53 47.43617 19.26382 475 ft 2 kts 226°
2026-05-04 19:53 47.43622 19.26402 475 ft 2 kts 272°
2026-05-04 19:53 47.43618 19.26422 475 ft 1 kts 307°
2026-05-04 19:53 47.43614 19.26428 475 ft 1 kts 315°
2026-05-04 19:54 47.43612 19.26431 475 ft 0 kts 313°
2026-05-04 19:57 47.43613 19.26430 475 ft 0 kts 313°
2026-05-04 19:57 47.43619 19.26420 475 ft 1 kts 313°
2026-05-04 19:57 47.43632 19.26399 475 ft 3 kts 313°
2026-05-04 19:57 47.43653 19.26367 475 ft 5 kts 316°
2026-05-04 19:58 47.43688 19.26351 475 ft 5 kts
2026-05-04 19:58 47.43722 19.26381 476 ft 5 kts 40°
2026-05-04 19:58 47.43756 19.26413 476 ft 6 kts 14°
2026-05-04 19:58 47.43797 19.26392 477 ft 6 kts 320°
2026-05-04 19:59 47.43830 19.26343 478 ft 6 kts 313°
2026-05-04 19:59 47.43863 19.26287 478 ft 7 kts 311°
2026-05-04 19:59 47.43899 19.26228 478 ft 6 kts 317°
2026-05-04 19:59 47.43935 19.26207 478 ft 5 kts 360°
2026-05-04 20:00 47.43971 19.26232 478 ft 6 kts 41°
2026-05-04 20:00 47.43983 19.26248 478 ft 0 kts 44°
2026-05-04 20:00 47.43984 19.26248 478 ft 0 kts 44°
2026-05-04 20:01 47.43987 19.26253 478 ft 0 kts 43°
2026-05-04 20:03 47.43992 19.26260 478 ft 4 kts 43°
2026-05-04 20:03 47.44041 19.26330 479 ft 12 kts 46°
2026-05-04 20:04 47.44067 19.26458 479 ft 14 kts 79°
2026-05-04 20:04 47.44047 19.26554 478 ft 0 kts 132°
2026-05-04 20:05 47.44043 19.26561 477 ft 13 kts 132°
2026-05-04 20:05 47.43776 19.26997 468 ft 97 kts 132°
2026-05-04 20:05 47.43161 19.27992 458 ft 160 kts 131°
2026-05-04 20:05 47.42381 19.29226 991 ft 168 kts 134°
2026-05-04 20:06 47.41592 19.30505 1666 ft 174 kts 132°
2026-05-04 20:06 47.40988 19.32018 2432 ft 172 kts 118°
2026-05-04 20:06 47.40466 19.33644 2799 ft 182 kts 119°
2026-05-04 20:06 47.39882 19.35391 3078 ft 198 kts 120°
2026-05-04 20:07 47.39214 19.37275 3396 ft 214 kts 121°
2026-05-04 20:07 47.38405 19.39282 3635 ft 234 kts 133°
2026-05-04 20:07 47.37022 19.40610 3965 ft 246 kts 166°
2026-05-04 20:07 47.35294 19.40618 4483 ft 255 kts 195°
2026-05-04 20:08 47.33730 19.39397 5169 ft 260 kts 221°
2026-05-04 20:08 47.32710 19.37217 5837 ft 267 kts 248°
2026-05-04 20:08 47.32420 19.34474 6533 ft 272 kts 264°
2026-05-04 20:08 47.32305 19.31692 7209 ft 276 kts 264°
2026-05-04 20:09 47.32175 19.28864 7885 ft 279 kts 264°
2026-05-04 20:09 47.32040 19.26026 8534 ft 282 kts 264°
2026-05-04 20:09 47.31901 19.23142 9181 ft 285 kts 264°
2026-05-04 20:09 47.31758 19.20211 9803 ft 287 kts 264°
2026-05-04 20:10 47.31614 19.17289 10396 ft 292 kts 264°
2026-05-04 20:10 47.31462 19.14223 10699 ft 307 kts 264°
2026-05-04 20:10 47.31301 19.11018 11030 ft 319 kts 264°
2026-05-04 20:10 47.31146 19.07897 11551 ft 324 kts 264°
2026-05-04 20:11 47.30979 19.04557 12169 ft 326 kts 264°
2026-05-04 20:11 47.30811 19.01228 12770 ft 328 kts 264°
2026-05-04 20:11 47.30639 18.97833 13371 ft 330 kts 264°
2026-05-04 20:11 47.30466 18.94454 13925 ft 333 kts 264°
2026-05-04 20:12 47.30291 18.91053 14468 ft 336 kts 265°
2026-05-04 20:12 47.30112 18.87582 15010 ft 338 kts 265°
2026-05-04 20:12 47.29873 18.82984 15707 ft 342 kts 265°
2026-05-04 20:12 47.29750 18.80630 16041 ft 344 kts 265°
2026-05-04 20:13 47.29563 18.77097 16527 ft 347 kts 265°
2026-05-04 20:13 47.29375 18.73525 17011 ft 350 kts 265°
2026-05-04 20:13 47.29188 18.69953 17510 ft 352 kts 265°
2026-05-04 20:13 47.28995 18.66355 17992 ft 354 kts 265°
2026-05-04 20:14 47.28800 18.62736 18499 ft 355 kts 265°
2026-05-04 20:14 47.28602 18.59102 18983 ft 356 kts 265°
2026-05-04 20:14 47.28402 18.55454 19441 ft 358 kts 265°
2026-05-04 20:14 47.28203 18.51813 19887 ft 359 kts 265°
2026-05-04 20:15 47.28001 18.48163 20294 ft 362 kts 265°
2026-05-04 20:15 47.27796 18.44457 20693 ft 364 kts 266°
2026-05-04 20:15 47.27590 18.40761 21079 ft 367 kts 266°
2026-05-04 20:15 47.27379 18.37016 21463 ft 369 kts 266°
2026-05-04 20:16 47.27165 18.33222 21851 ft 371 kts 265°
2026-05-04 20:16 47.26950 18.29426 22218 ft 373 kts 265°
2026-05-04 20:16 47.26736 18.25679 22579 ft 376 kts 265°
2026-05-04 20:16 47.26518 18.21884 22936 ft 378 kts 265°
2026-05-04 20:17 47.26295 18.18034 23281 ft 380 kts 266°
2026-05-04 20:17 47.26069 18.14133 23635 ft 382 kts 266°
2026-05-04 20:17 47.25841 18.10252 23990 ft 384 kts 266°
2026-05-04 20:17 47.25612 18.06355 24343 ft 385 kts 266°
2026-05-04 20:18 47.25380 18.02414 24691 ft 387 kts 266°
2026-05-04 20:18 47.25148 17.98503 25011 ft 389 kts 266°
2026-05-04 20:18 47.24909 17.94525 25337 ft 391 kts 266°
2026-05-04 20:18 47.24670 17.90536 25656 ft 393 kts 266°
2026-05-04 20:19 47.24426 17.86504 25968 ft 395 kts 266°
2026-05-04 20:19 47.24183 17.82515 26277 ft 396 kts 266°
2026-05-04 20:19 47.23934 17.78450 26584 ft 398 kts 266°
2026-05-04 20:19 47.23684 17.74390 26879 ft 400 kts 266°
2026-05-04 20:20 47.23434 17.70357 27166 ft 401 kts 266°
2026-05-04 20:20 47.23179 17.66275 27446 ft 403 kts 266°
2026-05-04 20:20 47.22920 17.62151 27729 ft 404 kts 266°
2026-05-04 20:20 47.22660 17.58031 28007 ft 406 kts 266°
2026-05-04 20:21 47.22400 17.53930 28282 ft 407 kts 266°
2026-05-04 20:21 47.22142 17.49900 28549 ft 409 kts 266°
2026-05-04 20:21 47.21609 17.41604 29071 ft 412 kts 266°
2026-05-04 20:22 47.21335 17.37377 29328 ft 413 kts 266°
2026-05-04 20:22 47.21060 17.33170 29584 ft 415 kts 266°
2026-05-04 20:22 47.20782 17.28933 29830 ft 416 kts 266°
2026-05-04 20:22 47.20502 17.24683 30070 ft 418 kts 266°
2026-05-04 20:23 47.20222 17.20477 30305 ft 419 kts 266°
2026-05-04 20:23 47.19935 17.16176 30553 ft 421 kts 266°
2026-05-04 20:23 47.19647 17.11897 30794 ft 422 kts 266°
2026-05-04 20:23 47.19360 17.07647 31028 ft 424 kts 266°
2026-05-04 20:24 47.19067 17.03322 31257 ft 425 kts 266°
2026-05-04 20:24 47.18771 16.98978 31485 ft 426 kts 266°
2026-05-04 20:24 47.18475 16.94678 31703 ft 428 kts 265°
2026-05-04 20:24 47.18173 16.90306 31922 ft 429 kts 265°
2026-05-04 20:25 47.17875 16.86010 32211 ft 429 kts 265°
2026-05-04 20:25 47.17568 16.81629 32547 ft 427 kts 265°
2026-05-04 20:25 47.17264 16.77307 32883 ft 425 kts 265°
2026-05-04 20:25 47.16963 16.73045 33206 ft 424 kts 265°
2026-05-04 20:26 47.16656 16.68740 33515 ft 422 kts 265°
2026-05-04 20:26 47.16353 16.64485 33805 ft 421 kts 265°
2026-05-04 20:26 47.16046 16.60235 34103 ft 420 kts 265°
2026-05-04 20:26 47.15737 16.55950 34404 ft 418 kts 265°
2026-05-04 20:27 47.15431 16.51741 34690 ft 417 kts 265°
2026-05-04 20:27 47.15123 16.47554 34938 ft 416 kts 264°
2026-05-04 20:27 47.14680 16.43393 35155 ft 415 kts 260°
2026-05-04 20:27 47.14022 16.39244 35366 ft 415 kts 256°
2026-05-04 20:28 47.13163 16.35198 35566 ft 415 kts 252°
2026-05-04 20:28 47.12117 16.31296 35743 ft 415 kts 247°
2026-05-04 20:28 47.10870 16.27498 35889 ft 416 kts 243°
2026-05-04 20:28 47.09403 16.23750 35950 ft 419 kts 240°
2026-05-04 20:29 47.06339 16.16579 35950 ft 418 kts 239°
2026-05-04 20:29 47.03243 16.09370 35952 ft 419 kts 239°
2026-05-04 20:30 47.00145 16.02168 35954 ft 418 kts 239°
2026-05-04 20:30 46.97059 15.95005 35950 ft 417 kts 239°
2026-05-04 20:31 46.93916 15.87724 35953 ft 417 kts 239°
2026-05-04 20:31 46.90810 15.80543 35955 ft 417 kts 239°
2026-05-04 20:32 46.87670 15.73307 35973 ft 417 kts 239°
2026-05-04 20:32 46.84540 15.66109 35977 ft 417 kts 239°
2026-05-04 20:33 46.81409 15.58933 35977 ft 417 kts 239°
2026-05-04 20:33 46.78252 15.51715 35995 ft 418 kts 239°
2026-05-04 20:34 46.75108 15.44543 35994 ft 418 kts 239°
2026-05-04 20:34 46.71939 15.37331 35999 ft 418 kts 239°
2026-05-04 20:35 46.68798 15.30205 36014 ft 418 kts 238°
2026-05-04 20:35 46.65635 15.23049 36026 ft 418 kts 238°
2026-05-04 20:36 46.62375 15.15964 36032 ft 419 kts 236°
2026-05-04 20:36 46.59014 15.08995 36034 ft 419 kts 236°
2026-05-04 20:37 46.55618 15.01951 36048 ft 420 kts 236°
2026-05-04 20:37 46.52240 14.94941 36038 ft 420 kts 236°
2026-05-04 20:38 46.48884 14.87987 36049 ft 419 kts 236°
2026-05-04 20:38 46.45524 14.81039 36056 ft 419 kts 236°
2026-05-04 20:39 46.42151 14.74087 36086 ft 419 kts 236°
2026-05-04 20:39 46.38797 14.67185 36079 ft 418 kts 236°
2026-05-04 20:40 46.35434 14.60282 36068 ft 418 kts 236°
2026-05-04 20:40 46.32095 14.53442 36075 ft 418 kts 236°
2026-05-04 20:41 46.28754 14.46617 36082 ft 418 kts 236°
2026-05-04 20:41 46.25387 14.39756 36073 ft 418 kts 236°
2026-05-04 20:42 46.22017 14.32908 36073 ft 417 kts 236°
2026-05-04 20:42 46.18645 14.26073 36078 ft 418 kts 236°
2026-05-04 20:43 46.15247 14.19197 36067 ft 417 kts 236°
2026-05-04 20:43 46.11859 14.12359 36079 ft 417 kts 236°
2026-05-04 20:44 46.10151 14.08919 36371 ft 417 kts 236°
2026-05-04 20:44 46.08450 14.05500 36189 ft 417 kts 236°
2026-05-04 20:44 46.05061 13.98692 36098 ft 416 kts 236°
2026-05-04 20:45 46.01672 13.91904 36091 ft 415 kts 236°
2026-05-04 20:45 45.98295 13.85154 36088 ft 415 kts 236°
2026-05-04 20:46 45.94923 13.78432 36093 ft 414 kts 236°
2026-05-04 20:46 45.91518 13.71659 36095 ft 415 kts 236°
2026-05-04 20:47 45.88118 13.64910 36091 ft 415 kts 236°
2026-05-04 20:47 45.84749 13.58174 36085 ft 414 kts 238°
2026-05-04 20:48 45.81529 13.51280 36083 ft 414 kts 238°
2026-05-04 20:48 45.78323 13.44430 36076 ft 413 kts 238°
2026-05-04 20:49 45.75106 13.37572 36075 ft 412 kts 238°
2026-05-04 20:49 45.71875 13.30699 36072 ft 412 kts 237°
2026-05-04 20:50 45.68668 13.23891 36070 ft 412 kts 237°
2026-05-04 20:50 45.65451 13.17085 36068 ft 412 kts 237°
2026-05-04 20:51 45.62217 13.10254 36067 ft 412 kts 237°
2026-05-04 20:51 45.58997 13.03473 36065 ft 412 kts 237°
2026-05-04 20:52 45.55771 12.96697 36063 ft 411 kts 237°
2026-05-04 20:52 45.52565 12.89974 36058 ft 411 kts 237°
2026-05-04 20:53 45.49352 12.83255 36058 ft 411 kts 237°
2026-05-04 20:53 45.46143 12.76562 36061 ft 411 kts 237°
2026-05-04 20:54 45.42920 12.69850 36057 ft 411 kts 237°
2026-05-04 20:54 45.39678 12.63119 36059 ft 411 kts 237°
2026-05-04 20:55 45.36461 12.56435 36056 ft 411 kts 238°
2026-05-04 20:55 45.33565 12.49410 36056 ft 409 kts 244°
2026-05-04 20:56 45.31249 12.42035 36055 ft 408 kts 250°
2026-05-04 20:56 45.29258 12.34464 36057 ft 408 kts 250°
2026-05-04 20:57 45.27256 12.26857 36055 ft 407 kts 250°
2026-05-04 20:57 45.25253 12.19272 36048 ft 407 kts 250°
2026-05-04 20:58 45.23255 12.11716 36056 ft 407 kts 250°
2026-05-04 20:58 45.22247 12.07922 35919 ft 407 kts 250°
2026-05-04 20:58 45.21249 12.04169 35995 ft 407 kts 250°
2026-05-04 20:59 45.19224 11.96575 36038 ft 406 kts 250°
2026-05-04 20:59 45.17220 11.89084 36047 ft 407 kts 250°
2026-05-04 21:00 45.15203 11.81569 36049 ft 407 kts 250°
2026-05-04 21:00 45.13180 11.74052 36049 ft 407 kts 250°
2026-05-04 21:01 45.11141 11.66494 36049 ft 407 kts 250°
2026-05-04 21:01 45.09126 11.59055 36046 ft 405 kts 250°
2026-05-04 21:02 45.07098 11.51590 36044 ft 405 kts 250°
2026-05-04 21:02 45.05057 11.44104 36046 ft 405 kts 250°
2026-05-04 21:03 45.03029 11.36689 36228 ft 404 kts 250°
2026-05-04 21:03 45.02023 11.33020 36121 ft 402 kts 249°
2026-05-04 21:03 45.00926 11.29337 36083 ft 403 kts 245°
2026-05-04 21:04 44.98101 11.22517 36066 ft 404 kts 236°
2026-05-04 21:04 44.94460 11.16453 36065 ft 405 kts 227°
2026-05-04 21:05 44.90138 11.11328 36064 ft 408 kts 220°
2026-05-04 21:05 44.85590 11.06533 36065 ft 407 kts 219°
2026-05-04 21:06 44.81072 11.01796 36066 ft 406 kts 220°
2026-05-04 21:06 44.78811 10.99429 35833 ft 406 kts 220°
2026-05-04 21:06 44.76537 10.97052 35550 ft 403 kts 220°
2026-05-04 21:07 44.74299 10.94715 35255 ft 400 kts 220°
2026-05-04 21:07 44.72093 10.92411 34878 ft 397 kts 220°
2026-05-04 21:07 44.69875 10.90099 34434 ft 395 kts 220°
2026-05-04 21:07 44.67671 10.87803 33932 ft 395 kts 220°
2026-05-04 21:08 44.65469 10.85509 33349 ft 396 kts 220°
2026-05-04 21:08 44.63223 10.83173 32712 ft 396 kts 220°
2026-05-04 21:08 44.61023 10.80883 32047 ft 397 kts 220°
2026-05-04 21:08 44.58803 10.78579 31441 ft 397 kts 220°
2026-05-04 21:09 44.56584 10.76280 31000 ft 393 kts 220°
2026-05-04 21:09 44.54397 10.74015 30541 ft 389 kts 220°
2026-05-04 21:09 44.52223 10.71764 30091 ft 386 kts 220°
2026-05-04 21:09 44.50082 10.69550 29651 ft 383 kts 219°
2026-05-04 21:10 44.47938 10.67333 29200 ft 380 kts 219°
2026-05-04 21:10 44.45796 10.65121 28747 ft 378 kts 219°
2026-05-04 21:10 44.43710 10.62970 28310 ft 375 kts 219°
2026-05-04 21:10 44.41602 10.60798 27878 ft 372 kts 219°
2026-05-04 21:11 44.39524 10.58657 27430 ft 370 kts 219°
2026-05-04 21:11 44.37462 10.56538 26990 ft 368 kts 218°
2026-05-04 21:11 44.35390 10.54410 26555 ft 365 kts 218°
2026-05-04 21:11 44.33347 10.52312 26112 ft 363 kts 218°
2026-05-04 21:12 44.31310 10.50222 25668 ft 362 kts 218°
2026-05-04 21:12 44.29266 10.48128 25218 ft 360 kts 217°
2026-05-04 21:12 44.27266 10.46080 24778 ft 358 kts 217°
2026-05-04 21:12 44.25278 10.44048 24332 ft 357 kts 217°
2026-05-04 21:13 44.23262 10.41990 23884 ft 355 kts 217°
2026-05-04 21:13 44.21267 10.39954 23450 ft 353 kts 216°
2026-05-04 21:13 44.19411 10.37762 22960 ft 354 kts 229°
2026-05-04 21:13 44.18156 10.34830 22503 ft 354 kts 248°
2026-05-04 21:14 44.17675 10.31422 22052 ft 356 kts 267°
2026-05-04 21:14 44.18020 10.28022 21628 ft 358 kts 283°
2026-05-04 21:14 44.18722 10.24694 21214 ft 357 kts 283°
2026-05-04 21:14 44.19422 10.21398 20799 ft 355 kts 283°
2026-05-04 21:15 44.20112 10.18136 20397 ft 353 kts 283°
2026-05-04 21:15 44.20796 10.14871 19989 ft 351 kts 283°
2026-05-04 21:15 44.21473 10.11632 19577 ft 349 kts 283°
2026-05-04 21:15 44.22150 10.08378 19172 ft 347 kts 283°
2026-05-04 21:16 44.22812 10.05189 18761 ft 345 kts 283°
2026-05-04 21:16 44.23483 10.01940 18350 ft 343 kts 283°
2026-05-04 21:16 44.24135 9.98785 17956 ft 341 kts 283°
2026-05-04 21:16 44.24786 9.95623 17556 ft 339 kts 283°
2026-05-04 21:17 44.25443 9.92431 17137 ft 337 kts 283°
2026-05-04 21:17 44.26080 9.89332 16738 ft 336 kts 283°
2026-05-04 21:17 44.26729 9.86173 16328 ft 335 kts 283°
2026-05-04 21:17 44.27359 9.83094 15922 ft 333 kts 283°
2026-05-04 21:18 44.27999 9.79967 15511 ft 332 kts 284°
2026-05-04 21:18 44.28629 9.76885 15191 ft 326 kts 284°
2026-05-04 21:18 44.29241 9.73853 14857 ft 321 kts 283°
2026-05-04 21:18 44.29839 9.70862 14521 ft 316 kts 283°
2026-05-04 21:19 44.30434 9.67900 14195 ft 311 kts 283°
2026-05-04 21:19 44.31013 9.65031 13897 ft 306 kts 283°
2026-05-04 21:19 44.31582 9.62217 13618 ft 298 kts 283°
2026-05-04 21:19 44.31965 9.59396 13130 ft 293 kts 272°
2026-05-04 21:20 44.31895 9.56575 12491 ft 292 kts 261°
2026-05-04 21:20 44.31609 9.53797 11944 ft 289 kts 259°
2026-05-04 21:20 44.31300 9.51029 11408 ft 287 kts 259°
2026-05-04 21:20 44.30996 9.48325 10880 ft 285 kts 259°
2026-05-04 21:21 44.30693 9.45590 10346 ft 282 kts 259°
2026-05-04 21:21 44.30397 9.42895 9675 ft 281 kts 258°
2026-05-04 21:21 44.30102 9.40217 9016 ft 280 kts 258°
2026-05-04 21:21 44.29813 9.37617 8398 ft 278 kts 259°
2026-05-04 21:22 44.29525 9.34999 7751 ft 277 kts 259°
2026-05-04 21:22 44.29230 9.32328 7250 ft 274 kts 258°
2026-05-04 21:22 44.28941 9.29698 7073 ft 275 kts 258°
2026-05-04 21:22 44.28653 9.27075 7060 ft 274 kts 259°
2026-05-04 21:23 44.28669 9.24407 6792 ft 275 kts 285°
2026-05-04 21:23 44.29678 9.22169 6450 ft 272 kts 320°
2026-05-04 21:23 44.31245 9.20718 6183 ft 266 kts 330°
2026-05-04 21:23 44.32819 9.19402 5881 ft 263 kts 326°
2026-05-04 21:24 44.34013 9.17529 5498 ft 262 kts 291°
2026-05-04 21:24 44.34559 9.15113 5230 ft 256 kts 284°
2026-05-04 21:24 44.35049 9.12730 4971 ft 252 kts 284°
2026-05-04 21:24 44.35545 9.10396 4698 ft 248 kts 284°
2026-05-04 21:25 44.36199 9.07384 4280 ft 239 kts 285°
2026-05-04 21:25 44.36524 9.05892 4009 ft 236 kts 284°
2026-05-04 21:25 44.36983 9.03742 3599 ft 231 kts 283°
2026-05-04 21:25 44.37423 9.01647 3309 ft 219 kts 283°
2026-05-04 21:26 44.37848 8.99669 2988 ft 202 kts 284°
2026-05-04 21:26 44.38245 8.97863 2995 ft 182 kts 284°
2026-05-04 21:26 44.38599 8.96246 2889 ft 175 kts 284°
2026-05-04 21:26 44.38952 8.94568 2297 ft 184 kts 282°
2026-05-04 21:27 44.39326 8.92904 1891 ft 178 kts 285°
2026-05-04 21:27 44.39743 8.91232 1338 ft 180 kts 286°
2026-05-04 21:27 44.40122 8.89579 832 ft 179 kts 284°
2026-05-04 21:27 44.40465 8.87932 390 ft 174 kts 283°
2026-05-04 21:28 44.40773 8.86366 120 ft 160 kts 283°
2026-05-04 21:28 44.41047 8.84948 25 ft 140 kts 283°
2026-05-04 21:28 44.41225 8.83998 19 ft 56 kts 288°
2026-05-04 21:28 44.41280 8.83759 19 ft 6 kts 287°
2026-05-04 21:29 44.41298 8.83671 19 ft 6 kts 285°
2026-05-04 21:29 44.41322 8.83550 19 ft 19 kts 285°
2026-05-04 21:29 44.41360 8.83344 19 ft 21 kts 285°
2026-05-04 21:29 44.41420 8.83158 19 ft 18 kts 312°
2026-05-04 21:30 44.41504 8.83085 19 ft 14 kts
2026-05-04 21:30 44.41545 8.83197 19 ft 15 kts 106°
2026-05-04 21:30 44.41514 8.83354 19 ft 14 kts 104°
2026-05-04 21:30 44.41476 8.83540 19 ft 18 kts 106°
2026-05-04 21:31 44.41418 8.83835 19 ft 15 kts 105°
2026-05-04 21:31 44.41391 8.83976 19 ft 15 kts 105°
2026-05-04 21:31 44.41363 8.84118 19 ft 14 kts 105°
2026-05-04 21:32 44.41338 8.84245 19 ft 2 kts 105°
2026-05-04 21:32 44.41338 8.84246 19 ft 0 kts 105°
2026-05-04 21:32 44.41336 8.84258 19 ft 2 kts 105°
2026-05-04 21:32 44.41317 8.84347 19 ft 15 kts 106°
2026-05-04 21:33 44.41359 8.84480 22 ft 17 kts 54°
2026-05-04 21:33 44.41425 8.84606 25 ft 14 kts 53°
2026-05-04 21:33 44.41481 8.84704 29 ft 11 kts 52°
2026-05-04 21:33 44.41525 8.84788 31 ft 10 kts 54°
2026-05-04 21:34 44.41569 8.84866 31 ft 10 kts 52°
2026-05-04 21:34 44.41620 8.84948 31 ft 10 kts 45°
2026-05-04 21:34 44.41639 8.84996 32 ft 3 kts 109°
2026-05-04 21:34 44.41622 8.85012 32 ft 1 kts 171°
2026-05-04 21:35 44.41615 8.85011 32 ft 1 kts 195°
2026-05-04 21:35 44.41608 8.85009 32 ft 0 kts 194°
2026-05-04 21:35 44.41603 8.85008 32 ft 0 kts 194°
2026-05-04 21:35 44.41601 8.85007 32 ft 0 kts 194°